Weather History for KBPC - April, 2013

Change the Weather History Date:

Monday, April 29, 2013

  Actual Average Record
Temperature  
Mean Temperature 75 °F -  
Max Temperature 95 °F - - ()
Min Temperature 55 °F - - ()
Cooling Degree Days 10    
Growing Degree Days 25 (Base 50)    
Moisture  
Dew Point 33 °F    
Average Humidity 23    
Maximum Humidity 47    
Minimum Humidity 8    
Precipitation  
Precipitation 0.00 in - - ()
Sea Level Pressure  
Sea Level Pressure 29.72 in    
Wind  
Wind Speed 18 mph (SSW)    
Max Wind Speed 31 mph    
Max Gust Speed 39 mph    
Visibility 10 miles    
Events      
Averages and records for this station are not official NWS values.
T = Trace of Precipitation, MM = Missing Value Source: NWS Daily Summary

Daily Weather History Graph

Daily Weather History Graph

Search for Another Location

Airport or City:

Trip Planner

Search our weather history database for the weather conditions in past years. The results will help you decide how hot, cold, wet, or windy it might be!

Date:

Astronomy

Apr. 29, 2013 Rise Set
Actual Time 6:53 AM CDT 8:29 PM CDT
Civil Twilight 6:26 AM CDT 8:57 PM CDT
Nautical Twilight 5:53 AM CDT 9:30 PM CDT
Astronomical Twilight 5:18 AM CDT 10:04 PM CDT
Moon No Moon Rise 10:19 AM CDT (4/29)
Length of Visible Light 14h 30m
Length of Day
13h 36m
Waning Gibbous, 80% of the Moon is Illuminated
Apr 29
Waning Gibbous
May 2
Last Quarter
May 9
New
May 17
First Quarter
May 24
Full

Hourly Weather History & Observations

Time (CDT) Temp. Dew Point Humidity Pressure Visibility Wind Dir Wind Speed Gust Speed Precip Events Conditions
12:15 AM 69.8 °F 35.6 °F 28% 29.79 in 10.0 mi South 17.3 mph 24.2 mph N/A   Clear
12:35 AM 68.0 °F 35.6 °F 30% 29.79 in 10.0 mi South 17.3 mph 21.9 mph N/A   Clear
12:55 AM 69.8 °F 33.8 °F 27% 29.79 in 10.0 mi SSW 21.9 mph 27.6 mph N/A   Clear
1:15 AM 69.8 °F 33.8 °F 27% 29.80 in 10.0 mi SSW 19.6 mph 25.3 mph N/A   Clear
1:35 AM 68.0 °F 33.8 °F 28% 29.80 in 10.0 mi SSW 17.3 mph - N/A   Clear
1:55 AM 68.0 °F 33.8 °F 28% 29.80 in 10.0 mi SSW 16.1 mph - N/A   Clear
2:15 AM 68.0 °F 33.8 °F 28% 29.80 in 10.0 mi SSW 17.3 mph - N/A   Clear
2:35 AM 64.4 °F 33.8 °F 32% 29.80 in 10.0 mi South 12.7 mph - N/A   Clear
2:55 AM 62.6 °F 33.8 °F 34% 29.80 in 10.0 mi SSW 13.8 mph - N/A   Clear
3:15 AM 62.6 °F 33.8 °F 34% 29.80 in 10.0 mi SSW 11.5 mph - N/A   Clear
3:35 AM 62.6 °F 33.8 °F 34% 29.80 in 10.0 mi SSW 10.4 mph - N/A   Clear
4:15 AM 59.0 °F 33.8 °F 39% 29.80 in 10.0 mi SW 4.6 mph - N/A   Clear
4:35 AM 59.0 °F 35.6 °F 42% 29.80 in 10.0 mi SW 10.4 mph - N/A   Clear
4:55 AM 59.0 °F 35.6 °F 42% 29.80 in 10.0 mi SW 9.2 mph - N/A   Clear
5:15 AM 55.4 °F 35.6 °F 47% 29.80 in 10.0 mi SW 11.5 mph - N/A   Clear
5:35 AM 59.0 °F 35.6 °F 42% 29.80 in 10.0 mi SW 12.7 mph - N/A   Clear
5:55 AM 59.0 °F 35.6 °F 42% 29.80 in 10.0 mi SSW 11.5 mph - N/A   Clear
6:15 AM 57.2 °F 35.6 °F 44% 29.80 in 10.0 mi SSW 11.5 mph - N/A   Clear
6:35 AM 59.0 °F 35.6 °F 42% 29.80 in 10.0 mi SSW 15.0 mph - N/A   Clear
6:55 AM 59.0 °F 37.4 °F 45% 29.80 in 10.0 mi SSW 17.3 mph - N/A   Clear
7:15 AM 60.8 °F 37.4 °F 42% 29.81 in 10.0 mi SSW 13.8 mph - N/A   Clear
7:35 AM 60.8 °F 37.4 °F 42% 29.81 in 10.0 mi SW 17.3 mph - N/A   Clear
8:15 AM 64.4 °F 37.4 °F 37% 29.81 in 10.0 mi SW 18.4 mph - N/A   Clear
8:35 AM 68.0 °F 37.4 °F 33% 29.81 in 10.0 mi SW 16.1 mph 23.0 mph N/A   Clear
8:55 AM 69.8 °F 39.2 °F 33% 29.81 in 10.0 mi SW 20.7 mph 27.6 mph N/A   Clear
9:15 AM 71.6 °F 39.2 °F 31% 29.81 in 10.0 mi WSW 18.4 mph 26.5 mph N/A   Clear
9:35 AM 73.4 °F 39.2 °F 29% 29.81 in 10.0 mi SW 19.6 mph 25.3 mph N/A   Clear
9:55 AM 77.0 °F 39.2 °F 26% 29.80 in 10.0 mi WSW 19.6 mph 24.2 mph N/A   Clear
10:15 AM 77.0 °F 37.4 °F 24% 29.81 in 10.0 mi WSW 16.1 mph 33.4 mph N/A   Clear
10:35 AM 78.8 °F 37.4 °F 23% 29.80 in 10.0 mi WSW 18.4 mph 24.2 mph N/A   Clear
10:55 AM 80.6 °F 37.4 °F 21% 29.80 in 10.0 mi WSW 21.9 mph 28.8 mph N/A   Clear
11:15 AM 82.4 °F 37.4 °F 20% 29.79 in 10.0 mi SW 20.7 mph 31.1 mph N/A   Clear
11:35 AM 82.4 °F 35.6 °F 19% 29.78 in 10.0 mi SW 24.2 mph 34.5 mph N/A   Clear
11:55 AM 86.0 °F 33.8 °F 15% 29.78 in 10.0 mi SW 26.5 mph 33.4 mph N/A   Clear
12:15 PM 86.0 °F 33.8 °F 15% 29.77 in 10.0 mi SW 20.7 mph 31.1 mph N/A   Clear
12:55 PM 87.8 °F 32.0 °F 14% 29.75 in 10.0 mi SW 23.0 mph 29.9 mph N/A   Clear
1:15 PM 89.6 °F 32.0 °F 13% 29.74 in 10.0 mi SSW 21.9 mph 31.1 mph N/A   Clear
1:35 PM 89.6 °F 32.0 °F 13% 29.73 in 10.0 mi SW 23.0 mph 38.0 mph N/A   Clear
1:55 PM 89.6 °F 32.0 °F 13% 29.72 in 10.0 mi SSW 23.0 mph 35.7 mph N/A   Clear
2:15 PM 91.4 °F 32.0 °F 12% 29.70 in 10.0 mi South 23.0 mph 36.8 mph N/A   Clear
2:35 PM 91.4 °F 30.2 °F 11% 29.69 in 10.0 mi SSW 24.2 mph 31.1 mph N/A   Clear
2:55 PM 93.2 °F 30.2 °F 11% 29.69 in 10.0 mi SW 17.3 mph 32.2 mph N/A   Clear
3:15 PM 91.4 °F 28.4 °F 10% 29.68 in 10.0 mi SSW 24.2 mph 39.1 mph N/A   Clear
3:35 PM 93.2 °F 28.4 °F 10% 29.67 in 10.0 mi SSW 21.9 mph 36.8 mph N/A   Clear
3:55 PM 95.0 °F 26.6 °F 9% 29.66 in 10.0 mi SW 20.7 mph 31.1 mph N/A   Clear
4:15 PM 91.4 °F 28.4 °F 10% 29.65 in 10.0 mi SSW 19.6 mph 34.5 mph N/A   Clear
4:35 PM 95.0 °F 28.4 °F 9% 29.64 in 10.0 mi SW 20.7 mph 26.5 mph N/A   Clear
4:55 PM 93.2 °F 28.4 °F 10% 29.63 in 10.0 mi SSW 17.3 mph 23.0 mph N/A   Clear
5:15 PM 93.2 °F 26.6 °F 9% 29.62 in 10.0 mi SSW 21.9 mph 28.8 mph N/A   Clear
5:35 PM 93.2 °F 23.0 °F 8% 29.62 in 10.0 mi West 12.7 mph 18.4 mph N/A   Clear
5:55 PM 93.2 °F 23.0 °F 8% 29.61 in 10.0 mi WSW 19.6 mph 25.3 mph N/A   Clear
6:15 PM 93.2 °F 23.0 °F 8% 29.60 in 10.0 mi SSW 17.3 mph 28.8 mph N/A   Clear
6:35 PM 91.4 °F 26.6 °F 10% 29.60 in 10.0 mi SSW 18.4 mph - N/A   Clear
6:55 PM 91.4 °F 28.4 °F 10% 29.60 in 10.0 mi South 21.9 mph 29.9 mph N/A   Clear
7:15 PM 89.6 °F 28.4 °F 11% 29.60 in 10.0 mi South 21.9 mph 29.9 mph N/A   Clear
7:35 PM 89.6 °F 28.4 °F 11% 29.59 in 10.0 mi South 19.6 mph 27.6 mph N/A   Clear
7:55 PM 87.8 °F 28.4 °F 12% 29.60 in 10.0 mi South 20.7 mph 27.6 mph N/A   Clear
8:15 PM 86.0 °F 28.4 °F 12% 29.60 in 10.0 mi South 18.4 mph 24.2 mph N/A   Clear
8:35 PM 82.4 °F 30.2 °F 15% 29.60 in 10.0 mi South 17.3 mph 23.0 mph N/A   Clear
8:55 PM 80.6 °F 32.0 °F 17% 29.61 in 10.0 mi South 21.9 mph 26.5 mph N/A   Clear
9:15 PM 78.8 °F 32.0 °F 18% 29.61 in 10.0 mi South 23.0 mph 31.1 mph N/A   Clear
9:35 PM 78.8 °F 32.0 °F 18% 29.62 in 10.0 mi South 21.9 mph 31.1 mph N/A   Clear
9:55 PM 78.8 °F 32.0 °F 18% 29.62 in 10.0 mi South 25.3 mph 31.1 mph N/A   Clear
10:15 PM 77.0 °F 32.0 °F 19% 29.63 in 10.0 mi South 23.0 mph 32.2 mph N/A   Clear
10:35 PM 77.0 °F 32.0 °F 19% 29.64 in 10.0 mi South 24.2 mph 31.1 mph N/A   Clear
10:55 PM 75.2 °F 32.0 °F 21% 29.64 in 10.0 mi South 26.5 mph 32.2 mph N/A   Clear
11:15 PM 75.2 °F 30.2 °F 19% 29.64 in 10.0 mi South 28.8 mph 36.8 mph N/A   Clear
11:35 PM 73.4 °F 30.2 °F 20% 29.64 in 10.0 mi South 31.1 mph 38.0 mph N/A   Clear
11:55 PM 73.4 °F 30.2 °F 20% 29.64 in 10.0 mi South 31.1 mph 39.1 mph N/A   Clear